Showing default

EXPLORER 29 (GEOS 1), 1726

Orbit data source: Space-Track

EXPLORER 29 (GEOS 1), 1726 is a payload satellite owned by GSFC (US) in LEO that was launched on Sat, 06 Nov 1965 UTC via a THOR DELTA E launch vehicle from the Air Force Eastern Test Range (AFETR). Payload-class satellites include a variety of spacecraft equipped with specific instruments for various scientific and technological missions. These include communications satellites like Starlink; space stations such as the ISS; scientific satellites like the Hubble; Earth observation satellites from companies like Planet Labs, Umbra, and HawkEye 360; GPS; miniature CubeSats for education and research; and military/defense satellites.

Loading next visibility...
Identifier
1726, 1965-089A
Orbit
LEO
Country
Flag of USUS
Related business
Manufacturer
APL
Mission
Spacecraft
Bus & Motor
ANNA, Unknown motor
Mass
176 kg wet, 176 kg dry
Launch date (UTC)
1965-11-06 (61 years ago)
Launch vehicle
THOR DELTA E
Launch site
Air Force Eastern Test Range (AFETR)
Object type
Payload
Rocket body
Debris
Shape & HBR
Unknown
Radar Cross Section
Large (>1 m²)

Expand to show TLE details & history
Last TLE update: 9 hours ago

TLE from 9 hours ago
0 EXPLORER 29 (GEOS 1)
1  1726U 65089A   26150.15597387 -.00000090  00000-0 -97615-4 0  9996
2  1726  59.3834  69.5790 0713922 209.0075 302.9735 11.97075970647500
Epoch: 2026-05-30T03:44Z
TLE epoch observation values (Epoch: 2026-05-30T03:44:36.142Z)
Latitude
29.82396°
Longitude
-73.97612°
Altitude
1,413.196 km
Speed
7.281 km/s
True Right ascension
15h 19m 24s
True Declination
29° 41' 18"
Sunlit
Object was in full shadow at epoch
Visualization orbit readout
Latitude
Unknown
Longitude
Unknown
Altitude
Unknown
Speed
Unknown
Apparent Right ascension
Unknown
Apparent Declination
Unknown
Sunlit
N/A
Visualization observer readout
Local Sidereal Time
21:52:01
Azimuth
Unknown
Elevation
Unknown
Doppler factor
Unknown
Orbital elements
Apogee altitude
2,269.616 km
Perigee altitude
1,117.131 km
Semi-major axis
8,071.511 km
Eccentricity
0.07139
Inclination
59.3834°
RAAN
69.579°
Arg. of periapsis
209.0075°
True anomaly
295.77979°
Mean anomaly
302.9735°
Eccentric anomaly
299.41018°
Mean motion
2.99303 °/min
Orbital period
120.28 mins
BSTAR
-0.000097615
Loading maneuver chart data...
Computing Atmospheric mass density...
Loading historical data...
Loading historical data...
Loading historical data...
Loading historical data...
Loading historical data...
Loading historical data...
Loading historical data...

Documentation

Showing up to 5 results
|